Location: Limoges
(45.8354°N, 1.2645°E)
Time: 18:00:40
(UTC+02:00)

Vanguard 2 Rocket - Pass Details

Date: 22 February 2024
Orbit: 555 x 3307 km, 32.9° (Epoch: 23 April)

Event Time Altitude Azimuth Distance (km) Brightness Sun altitude
Rises 22:02:45 0° 275° (W) 6,582 12.1 -36.8°
Reaches altitude 10° 22:07:44 10° 266° (W) 5,858 11.5 -37.6°
Maximum altitude 22:22:14 29° 216° (SW) 4,850 10.5 -39.8°
Enters shadow 22:30:10 22° 185° (S) 5,200 10.4 -40.9°
